الصفحة الرئيسية
METAR-TAF:

METAR-TAF

مطار :

Cooma, أستراليا

دائرة عرض: 36-18-00S, خط طول: 148-58-24E, ارتفاع: 947 متر

مراقبة الطقس الحالي

تاريخ ووقت الإصدار 46 دقيقة قبل الساعة 06:00UTC
ريح 11 عقدة من الجنوب
درجة الحرارة 14°درجة مئوية
الرطوبة 55%
ضغط 1019 hPa
الرؤية 10 كم أو أكثر

METAR: YCOM 060600Z AUTO 18011KT 9999 // NCD 14/05 Q1019

زمن: 16:46 (06:46 UTC)


TAF: مفقودة

أرصاد الطقس والتوقعات من أكثر من 4000 مطار (تقارير الطقس للمطار METAR والتنبؤ بالطقس بالمطارTAF).

المحطات المتاحة هي النقط الصفراء والحمراء على الخريطة.

حرك المؤشر فوق النقطة لمعرفة اسم المحطة.

ثم انقر لمعرفة أرصاد وتوقعات الطقس.

لتغيير الخارطة: اضغط على الأزرار الخضراء مع رمز الصليب الأسود للتكبير. على الزر الأخضر مع شرطة للتصغير، أو على الأسهم الخضراء للخرائط المجاورة.


METAR-TAF: